Time,TemperatureF,DewpointF,PressureIn,WindDirection,WindDirectionDegrees,WindSpeedMPH,WindSpeedGustMPH,Humidity,HourlyPrecipIn,Conditions,Clouds,dailyrainin,SoftwareType,DateUTC
2013-06-08 00:01:00,62.3,58.0,29.77,SW,217,0.0,-999.0,86,-99.99,,,0.00,weatherlink.com 1.10,2013-06-08 07:01:00,
2013-06-08 00:16:00,62.5,58.0,29.77,SW,217,0.0,-999.0,86,-99.99,,,0.00,weatherlink.com 1.10,2013-06-08 07:16:00,
2013-06-08 00:31:00,62.6,58.0,29.76,WNW,286,2.0,-999.0,86,-99.99,,,0.00,weatherlink.com 1.10,2013-06-08 07:31:00,
2013-06-08 00:46:00,62.6,58.0,29.76,NNW,335,0.0,-999.0,86,-99.99,,,0.00,weatherlink.com 1.10,2013-06-08 07:46:00,
2013-06-08 01:01:00,62.6,58.0,29.75,NNW,339,0.0,-999.0,86,-99.99,,,0.00,weatherlink.com 1.10,2013-06-08 08:01:00,
2013-06-08 01:16:00,62.7,59.0,29.75,NNW,339,0.0,-999.0,86,-99.99,,,0.00,weatherlink.com 1.10,2013-06-08 08:16:00,
2013-06-08 01:31:00,62.8,59.0,29.74,SW,217,0.0,-999.0,86,-99.99,,,0.00,weatherlink.com 1.10,2013-06-08 08:31:00,
2013-06-08 01:46:00,62.6,58.0,29.75,SSW,196,0.0,-999.0,86,-99.99,,,0.00,weatherlink.com 1.10,2013-06-08 08:46:00,
2013-06-08 02:01:00,62.5,59.0,29.74,South,173,1.0,-999.0,87,-99.99,,,0.00,weatherlink.com 1.10,2013-06-08 09:01:00,
2013-06-08 02:16:00,62.3,58.0,29.74,SE,131,3.0,-999.0,87,-99.99,,,0.00,weatherlink.com 1.10,2013-06-08 09:16:00,
2013-06-08 02:31:00,62.3,58.0,29.74,SE,133,1.0,-999.0,87,-99.99,,,0.00,weatherlink.com 1.10,2013-06-08 09:31:00,
2013-06-08 02:46:00,62.2,58.0,29.74,ENE,67,0.0,-999.0,87,-99.99,,,0.00,weatherlink.com 1.10,2013-06-08 09:46:00,
2013-06-08 03:01:00,62.2,58.0,29.74,ENE,67,0.0,-999.0,87,-99.99,,,0.00,weatherlink.com 1.10,2013-06-08 10:01:00,
2013-06-08 03:16:00,62.2,58.0,29.73,South,184,0.0,-999.0,87,-99.99,,,0.00,weatherlink.com 1.10,2013-06-08 10:16:00,
2013-06-08 03:31:00,62.2,58.0,29.73,ESE,107,0.0,-999.0,87,-99.99,,,0.00,weatherlink.com 1.10,2013-06-08 10:31:00,
2013-06-08 03:46:00,62.1,58.0,29.73,ESE,107,0.0,-999.0,87,-99.99,,,0.00,weatherlink.com 1.10,2013-06-08 10:46:00,
2013-06-08 04:01:00,62.1,59.0,29.73,ESE,107,0.0,-999.0,88,-99.99,,,0.00,weatherlink.com 1.10,2013-06-08 11:01:00,
2013-06-08 04:16:00,62.1,59.0,29.73,ESE,107,0.0,-999.0,88,-99.99,,,0.00,weatherlink.com 1.10,2013-06-08 11:16:00,
2013-06-08 04:31:00,62.1,59.0,29.73,ESE,107,0.0,-999.0,88,-99.99,,,0.00,weatherlink.com 1.10,2013-06-08 11:31:00,
2013-06-08 04:46:00,62.1,59.0,29.73,ESE,107,0.0,-999.0,88,-99.99,,,0.00,weatherlink.com 1.10,2013-06-08 11:46:00,
2013-06-08 05:01:00,62.0,59.0,29.73,ESE,107,0.0,-999.0,88,-99.99,,,0.00,weatherlink.com 1.10,2013-06-08 12:01:00,
2013-06-08 05:16:00,62.1,59.0,29.73,ESE,107,0.0,-999.0,88,-99.99,,,0.00,weatherlink.com 1.10,2013-06-08 12:16:00,
2013-06-08 05:31:00,62.1,59.0,29.73,ESE,108,0.0,-999.0,88,-99.99,,,0.00,weatherlink.com 1.10,2013-06-08 12:31:00,
2013-06-08 05:46:00,62.0,59.0,29.73,South,183,0.0,-999.0,88,-99.99,,,0.00,weatherlink.com 1.10,2013-06-08 12:46:00,
2013-06-08 06:01:00,62.0,59.0,29.73,South,172,0.0,-999.0,88,-99.99,,,0.00,weatherlink.com 1.10,2013-06-08 13:01:00,
2013-06-08 06:31:00,62.0,58.0,29.74,South,177,2.0,-999.0,87,-99.99,,,0.00,weatherlink.com 1.10,2013-06-08 13:31:00,
2013-06-08 06:46:00,62.0,58.0,29.74,South,187,0.0,-999.0,87,-99.99,,,0.00,weatherlink.com 1.10,2013-06-08 13:46:00,
2013-06-08 07:01:00,62.0,58.0,29.74,SE,146,0.0,-999.0,86,-99.99,,,0.00,weatherlink.com 1.10,2013-06-08 14:01:00,
2013-06-08 07:16:00,62.3,58.0,29.75,South,179,0.0,-999.0,86,-99.99,,,0.00,weatherlink.com 1.10,2013-06-08 14:16:00,
2013-06-08 07:31:00,62.5,58.0,29.75,South,173,1.0,-999.0,86,-99.99,,,0.00,weatherlink.com 1.10,2013-06-08 14:31:00,
2013-06-08 07:46:00,62.5,58.0,29.76,South,179,0.0,-999.0,86,-99.99,,,0.00,weatherlink.com 1.10,2013-06-08 14:46:00,
2013-06-08 08:01:00,62.7,59.0,29.76,South,180,2.0,-999.0,86,-99.99,,,0.00,weatherlink.com 1.10,2013-06-08 15:01:00,
2013-06-08 08:17:00,62.9,59.0,29.76,South,180,0.0,-999.0,86,-99.99,,,0.00,weatherlink.com 1.10,2013-06-08 15:17:00,
2013-06-08 08:31:00,62.9,59.0,29.77,SSW,195,1.0,-999.0,86,-99.99,,,0.00,weatherlink.com 1.10,2013-06-08 15:31:00,
2013-06-08 08:47:00,63.0,59.0,29.77,SSE,167,1.0,-999.0,85,-99.99,,,0.00,weatherlink.com 1.10,2013-06-08 15:47:00,
2013-06-08 09:02:00,63.2,59.0,29.77,SSE,167,0.0,-999.0,85,-99.99,,,0.00,weatherlink.com 1.10,2013-06-08 16:02:00,
2013-06-08 09:16:00,63.3,59.0,29.77,SSE,167,0.0,-999.0,85,-99.99,,,0.00,weatherlink.com 1.10,2013-06-08 16:16:00,
2013-06-08 09:32:00,63.4,59.0,29.78,SSE,167,1.0,-999.0,86,-99.99,,,0.00,weatherlink.com 1.10,2013-06-08 16:32:00,
2013-06-08 09:47:00,63.8,59.0,29.78,WSW,242,3.0,-999.0,85,-99.99,,,0.00,weatherlink.com 1.10,2013-06-08 16:47:00,
2013-06-08 10:02:00,63.7,59.0,29.78,SSW,209,0.0,-999.0,85,-99.99,,,0.00,weatherlink.com 1.10,2013-06-08 17:02:00,
2013-06-08 10:17:00,63.9,60.0,29.79,SW,229,2.0,-999.0,86,-99.99,,,0.00,weatherlink.com 1.10,2013-06-08 17:17:00,
2013-06-08 10:32:00,64.1,60.0,29.79,SW,231,3.0,-999.0,85,-99.99,,,0.00,weatherlink.com 1.10,2013-06-08 17:32:00,
2013-06-08 10:47:00,64.1,60.0,29.79,SSW,209,3.0,-999.0,85,-99.99,,,0.00,weatherlink.com 1.10,2013-06-08 17:47:00,
2013-06-08 11:02:00,64.3,60.0,29.80,SSW,208,4.0,-999.0,85,-99.99,,,0.00,weatherlink.com 1.10,2013-06-08 18:02:00,
2013-06-08 11:17:00,64.3,59.0,29.80,SSW,195,2.0,-999.0,84,-99.99,,,0.00,weatherlink.com 1.10,2013-06-08 18:17:00,
2013-06-08 11:32:00,65.0,60.0,29.80,SSW,198,0.0,-999.0,83,-99.99,,,0.00,weatherlink.com 1.10,2013-06-08 18:32:00,
2013-06-08 11:47:00,65.4,60.0,29.80,SSW,212,3.0,-999.0,82,-99.99,,,0.00,weatherlink.com 1.10,2013-06-08 18:47:00,
2013-06-08 12:02:00,66.2,60.0,29.80,SSW,195,6.0,-999.0,80,-99.99,,,0.00,weatherlink.com 1.10,2013-06-08 19:02:00,
2013-06-08 12:17:00,66.4,60.0,29.80,SW,214,4.0,-999.0,80,-99.99,,,0.00,weatherlink.com 1.10,2013-06-08 19:17:00,
2013-06-08 12:32:00,66.7,61.0,29.81,SSE,155,6.0,-999.0,81,-99.99,,,0.00,weatherlink.com 1.10,2013-06-08 19:32:00,
2013-06-08 12:47:00,66.6,60.0,29.81,SW,220,2.0,-999.0,80,-99.99,,,0.00,weatherlink.com 1.10,2013-06-08 19:47:00,
2013-06-08 13:02:00,67.3,60.0,29.82,SSW,202,4.0,-999.0,78,-99.99,,,0.00,weatherlink.com 1.10,2013-06-08 20:02:00,
2013-06-08 13:17:00,67.9,60.0,29.81,SSW,207,5.0,-999.0,77,-99.99,,,0.00,weatherlink.com 1.10,2013-06-08 20:17:00,
2013-06-08 13:32:00,69.2,61.0,29.80,South,186,2.0,-999.0,76,-99.99,,,0.00,weatherlink.com 1.10,2013-06-08 20:32:00,
2013-06-08 13:47:00,69.5,61.0,29.80,SW,229,6.0,-999.0,74,-99.99,,,0.00,weatherlink.com 1.10,2013-06-08 20:47:00,
2013-06-08 14:02:00,69.7,61.0,29.80,SW,234,5.0,-999.0,74,-99.99,,,0.00,weatherlink.com 1.10,2013-06-08 21:02:00,
2013-06-08 14:17:00,69.6,61.0,29.80,West,280,2.0,-999.0,74,-99.99,,,0.00,weatherlink.com 1.10,2013-06-08 21:17:00,
2013-06-08 14:32:00,70.0,61.0,29.80,WSW,248,3.0,-999.0,74,-99.99,,,0.00,weatherlink.com 1.10,2013-06-08 21:32:00,
2013-06-08 14:47:00,70.2,61.0,29.80,SSW,205,4.0,-999.0,73,-99.99,,,0.00,weatherlink.com 1.10,2013-06-08 21:47:00,
2013-06-08 15:02:00,70.7,61.0,29.80,SE,146,3.0,-999.0,72,-99.99,,,0.00,weatherlink.com 1.10,2013-06-08 22:02:00,
2013-06-08 15:17:00,70.8,62.0,29.80,SSW,195,5.0,-999.0,73,-99.99,,,0.00,weatherlink.com 1.10,2013-06-08 22:17:00,
2013-06-08 15:32:00,69.9,61.0,29.80,SW,227,2.0,-999.0,73,-99.99,,,0.00,weatherlink.com 1.10,2013-06-08 22:32:00,
2013-06-08 15:47:00,70.5,61.0,29.79,SW,229,8.0,-999.0,72,-99.99,,,0.00,weatherlink.com 1.10,2013-06-08 22:47:00,
2013-06-08 16:02:00,69.9,61.0,29.80,SSW,212,7.0,-999.0,74,-99.99,,,0.00,weatherlink.com 1.10,2013-06-08 23:02:00,
2013-06-08 16:17:00,70.0,61.0,29.80,SSW,201,7.0,-999.0,72,-99.99,,,0.00,weatherlink.com 1.10,2013-06-08 23:17:00,
2013-06-08 16:32:00,69.1,60.0,29.80,SW,234,4.0,-999.0,73,-99.99,,,0.00,weatherlink.com 1.10,2013-06-08 23:32:00,
2013-06-08 16:47:00,68.5,60.0,29.80,SSW,201,6.0,-999.0,74,-99.99,,,0.00,weatherlink.com 1.10,2013-06-08 23:47:00,
2013-06-08 17:02:00,68.2,60.0,29.80,SSW,200,2.0,-999.0,75,-99.99,,,0.00,weatherlink.com 1.10,2013-06-09 00:02:00,
2013-06-08 17:17:00,67.3,60.0,29.80,SW,217,6.0,-999.0,76,-99.99,,,0.00,weatherlink.com 1.10,2013-06-09 00:17:00,
2013-06-08 17:32:00,67.4,60.0,29.80,West,275,0.0,-999.0,77,-99.99,,,0.00,weatherlink.com 1.10,2013-06-09 00:32:00,
2013-06-08 17:47:00,67.0,60.0,29.80,West,267,5.0,-999.0,77,-99.99,,,0.00,weatherlink.com 1.10,2013-06-09 00:47:00,
2013-06-08 18:02:00,67.0,60.0,29.80,SSW,211,2.0,-999.0,77,-99.99,,,0.00,weatherlink.com 1.10,2013-06-09 01:02:00,
2013-06-08 18:17:00,65.8,59.0,29.80,WSW,250,7.0,-999.0,79,-99.99,,,0.00,weatherlink.com 1.10,2013-06-09 01:17:00,
2013-06-08 18:32:00,65.4,59.0,29.80,WSW,247,4.0,-999.0,80,-99.99,,,0.00,weatherlink.com 1.10,2013-06-09 01:32:00,
2013-06-08 18:47:00,65.1,59.0,29.80,SSW,194,4.0,-999.0,81,-99.99,,,0.00,weatherlink.com 1.10,2013-06-09 01:47:00,
2013-06-08 19:02:00,64.7,59.0,29.80,WSW,250,3.0,-999.0,82,-99.99,,,0.00,weatherlink.com 1.10,2013-06-09 02:02:00,
2013-06-08 19:17:00,64.3,59.0,29.81,South,188,5.0,-999.0,82,-99.99,,,0.00,weatherlink.com 1.10,2013-06-09 02:17:00,
2013-06-08 19:32:00,63.8,59.0,29.81,South,178,0.0,-999.0,83,-99.99,,,0.00,weatherlink.com 1.10,2013-06-09 02:32:00,
2013-06-08 19:47:00,63.5,58.0,29.81,SSW,213,1.0,-999.0,83,-99.99,,,0.00,weatherlink.com 1.10,2013-06-09 02:47:00,
2013-06-08 20:02:00,63.1,58.0,29.81,SW,232,1.0,-999.0,83,-99.99,,,0.00,weatherlink.com 1.10,2013-06-09 03:02:00,
2013-06-08 20:17:00,62.8,58.0,29.82,SSW,206,4.0,-999.0,84,-99.99,,,0.00,weatherlink.com 1.10,2013-06-09 03:17:00,
2013-06-08 20:32:00,62.7,58.0,29.82,SW,221,0.0,-999.0,85,-99.99,,,0.00,weatherlink.com 1.10,2013-06-09 03:32:00,
2013-06-08 20:47:00,62.6,58.0,29.82,SSW,207,4.0,-999.0,85,-99.99,,,0.00,weatherlink.com 1.10,2013-06-09 03:47:00,
2013-06-08 21:02:00,62.5,58.0,29.83,South,181,2.0,-999.0,85,-99.99,,,0.00,weatherlink.com 1.10,2013-06-09 04:02:00,
2013-06-08 21:17:00,62.5,58.0,29.83,SSW,209,1.0,-999.0,85,-99.99,,,0.00,weatherlink.com 1.10,2013-06-09 04:17:00,
2013-06-08 21:32:00,62.5,58.0,29.83,SSE,165,0.0,-999.0,85,-99.99,,,0.00,weatherlink.com 1.10,2013-06-09 04:32:00,
2013-06-08 21:47:00,62.5,58.0,29.83,South,177,0.0,-999.0,86,-99.99,,,0.00,weatherlink.com 1.10,2013-06-09 04:47:00,
2013-06-08 22:02:00,62.4,58.0,29.84,SSE,165,1.0,-999.0,86,-99.99,,,0.00,weatherlink.com 1.10,2013-06-09 05:02:00,
2013-06-08 22:17:00,62.4,58.0,29.84,SW,219,3.0,-999.0,86,-99.99,,,0.00,weatherlink.com 1.10,2013-06-09 05:17:00,
2013-06-08 22:32:00,62.4,58.0,29.85,SW,221,3.0,-999.0,86,-99.99,,,0.00,weatherlink.com 1.10,2013-06-09 05:32:00,
2013-06-08 22:47:00,62.4,58.0,29.84,SSE,153,1.0,-999.0,86,-99.99,,,0.00,weatherlink.com 1.10,2013-06-09 05:47:00,
2013-06-08 23:02:00,62.3,58.0,29.84,SSW,211,2.0,-999.0,86,-99.99,,,0.00,weatherlink.com 1.10,2013-06-09 06:02:00,
2013-06-08 23:17:00,62.3,58.0,29.84,South,178,3.0,-999.0,86,-99.99,,,0.00,weatherlink.com 1.10,2013-06-09 06:17:00,
2013-06-08 23:32:00,62.4,58.0,29.84,SSW,210,1.0,-999.0,86,-99.99,,,0.00,weatherlink.com 1.10,2013-06-09 06:32:00,
2013-06-08 23:47:00,62.3,58.0,29.84,SW,220,3.0,-999.0,86,-99.99,,,0.00,weatherlink.com 1.10,2013-06-09 06:47:00,